This is the latest recevied weather packets stored in our database for station/object KC1TWD. If no packets are shown the sender has not sent any weather packets the latest 10 day(s).
| Time | Temp. | Humidity | Pressure | Rain* | Wind** | Luminosity | Snow |
|---|---|---|---|---|---|---|---|
| 1777694395 | 5° C | 83% | 1011.5 hPa | 0 mm | - | - | - |
| 1777694091 | 5° C | 83% | 1011.6 hPa | 0 mm | - | - | - |
| 1777693789 | 5° C | 84% | 1011.5 hPa | 0 mm | - | - | - |
| 1777693488 | 4.44° C | 83% | 1011.7 hPa | 0 mm | - | - | - |
| 1777693186 | 4.44° C | 84% | 1011.7 hPa | 0 mm | - | - | - |
| 1777692883 | 4.44° C | 84% | 1011.6 hPa | 0 mm | - | - | - |
| 1777692579 | 4.44° C | 83% | 1011.6 hPa | 0 mm | - | - | - |
| 1777692276 | 4.44° C | 84% | 1011.4 hPa | 0 mm | - | - | - |
| 1777691973 | 5° C | 83% | 1011.4 hPa | 0 mm | - | - | - |
| 1777691672 | 5° C | 82% | 1011.4 hPa | 0 mm | - | - | - |
| 1777691369 | 5° C | 82% | 1011.7 hPa | 0 mm | - | - | - |
| 1777691067 | 5° C | 80% | 1011.6 hPa | 0 mm | - | - | - |
| 1777690765 | 5° C | 80% | 1011.5 hPa | 0 mm | - | - | - |
| 1777690462 | 5° C | 81% | 1011.7 hPa | 0 mm | - | - | - |
| 1777690160 | 5° C | 80% | 1011.5 hPa | 0 mm | - | - | - |
| 1777689858 | 5° C | 79% | 1011.6 hPa | 0 mm | - | - | - |
| 1777689555 | 5.56° C | 79% | 1011.6 hPa | 0 mm | - | - | - |
| 1777689253 | 5.56° C | 81% | 1011.6 hPa | 0 mm | - | - | - |
| 1777688950 | 5.56° C | 78% | 1011.5 hPa | 0 mm | - | - | - |
| 1777688646 | 5.56° C | 77% | 1011.3 hPa | 0 mm | - | - | - |
| 1777688343 | 6.11° C | 76% | 1011.4 hPa | 0 mm | - | - | - |
| 1777688041 | 6.11° C | 74% | 1011.3 hPa | 0 mm | - | - | - |
| 1777687738 | 6.11° C | 74% | 1011.3 hPa | 0 mm | - | - | - |
| 1777687435 | 6.67° C | 74% | 1011.5 hPa | 0 mm | - | - | - |
| 1777687132 | 6.67° C | 73% | 1011.4 hPa | 0 mm | - | - | - |
* Rain latest hour (hover to see other rain measurements)
** Current wind speed in m/s (hover to see current wind gust speed)